Change the Weather History Date:

Saturday, November 3, 2012

  Actual Average (LIVT) Record (LIVT)
Temperature  
Mean Temperature 58 °F -  
Max Temperature 66 °F 59 °F 71 °F (2004)
Min Temperature 50 °F 51 °F 42 °F (2006)
Degree Days  
Heating Degree Days 7    
Growing Degree Days 8 (Base 50)    
Moisture  
Dew Point 51 °F    
Average Humidity 80    
Maximum Humidity 94    
Minimum Humidity 56    
Precipitation  
Precipitation 0.00 in - - ()
Sea Level Pressure  
Sea Level Pressure 29.95 in    
Wind  
Wind Speed 7 mph ()    
Max Wind Speed 13 mph    
Max Gust Speed -    
Visibility 6.2 miles    
Events      
Averages and records for this station are not official NWS values.
T = Trace of Precipitation, MM = Missing Value Source: Averaged Metar Reports

Daily Weather History Graph

Daily Weather History Graph

Search for Another Location

Airport or City:

Trip Planner

Search our weather history database for the weather conditions in past years. The results will help you decide how hot, cold, wet, or windy it might be!

Date:

Astronomy

Nov. 03, 2012 Rise Set
Actual Time 6:48 AM CET 4:49 PM CET
Civil Twilight 6:16 AM CET 5:20 PM CET
Nautical Twilight 5:41 AM CET 5:55 PM CET
Astronomical Twilight 5:07 AM CET 6:30 PM CET
Moon 8:09 PM CET (11/3) 10:45 AM CET (11/3)
Length of Visible Light 11h 03m
Length of Day
10h 01m
Waning Gibbous, 82% of the Moon is Illuminated
Nov 3
Waning Gibbous
Nov 7
Last Quarter
Nov 13
New
Nov 20
First Quarter
Nov 28
Full

Hourly Weather History & Observations

Time (CET) Temp. Dew Point Humidity Pressure Visibility Wind Dir Wind Speed Gust Speed Precip Events Conditions
12:00 AM 51.8 °F 46.4 °F 82% 29.89 in 6.2 mi ESE 8.1 mph - N/A   Unknown
12:30 AM 51.8 °F 46.4 °F 82% 29.89 in 6.2 mi ESE 8.1 mph - N/A   Unknown
1:00 AM 51.8 °F 48.2 °F 88% 29.89 in 6.2 mi ESE 6.9 mph - N/A   Unknown
1:30 AM 50.0 °F 46.4 °F 87% 29.92 in 6.2 mi ESE 8.1 mph - N/A   Unknown
2:00 AM 51.8 °F 48.2 °F 88% 29.92 in 6.2 mi ESE 9.2 mph - N/A   Unknown
2:30 AM 50.0 °F 46.4 °F 87% 29.92 in 6.2 mi ESE 8.1 mph - N/A   Unknown
3:00 AM 51.8 °F 48.2 °F 88% 29.92 in 6.2 mi ESE 10.4 mph - N/A   Unknown
3:30 AM 50.0 °F 46.4 °F 87% 29.92 in 6.2 mi ESE 9.2 mph - N/A   Unknown
4:00 AM 50.0 °F 46.4 °F 87% 29.92 in 6.2 mi ESE 9.2 mph - N/A   Unknown
4:30 AM 50.0 °F 46.4 °F 87% 29.92 in 6.2 mi ESE 8.1 mph - N/A   Unknown
5:00 AM 50.0 °F 46.4 °F 87% 29.92 in 6.2 mi ESE 9.2 mph - N/A   Unknown
5:30 AM 51.8 °F 46.4 °F 82% 29.92 in 6.2 mi ESE 9.2 mph - N/A   Unknown
6:00 AM 50.0 °F 46.4 °F 87% 29.92 in - ESE 11.5 mph - N/A   Clear
6:30 AM 51.8 °F 48.2 °F 88% 29.95 in - ESE 8.1 mph - N/A   Clear
7:00 AM 51.8 °F 48.2 °F 88% 29.95 in 6.2 mi ESE 5.8 mph - N/A   Partly Cloudy
7:30 AM 50.0 °F 48.2 °F 94% 29.95 in 6.2 mi ESE 8.1 mph - N/A   Partly Cloudy
8:00 AM 53.6 °F 50.0 °F 88% 29.98 in 6.2 mi ESE 10.4 mph - N/A   Scattered Clouds
8:30 AM 55.4 °F 51.8 °F 88% 29.98 in 6.2 mi ESE 9.2 mph - N/A   Scattered Clouds
9:00 AM 59.0 °F 53.6 °F 82% 29.98 in 6.2 mi ESE 6.9 mph - N/A   Scattered Clouds
9:30 AM 60.8 °F 53.6 °F 77% 29.98 in 6.2 mi SE 5.8 mph - N/A   Scattered Clouds
10:00 AM 62.6 °F 51.8 °F 68% 29.98 in - SSE 5.8 mph - N/A   Clear
10:30 AM 62.6 °F 51.8 °F 68% 29.98 in 6.2 mi SSE 5.8 mph - N/A   Scattered Clouds
11:00 AM 64.4 °F 51.8 °F 64% 29.98 in 6.2 mi SSE 4.6 mph - N/A   Mostly Cloudy
11:30 AM 66.2 °F 50.0 °F 56% 29.98 in 6.2 mi South 4.6 mph - N/A   Mostly Cloudy
12:00 PM 64.4 °F 51.8 °F 64% 29.98 in 6.2 mi South 5.8 mph - N/A   Scattered Clouds
12:30 PM 64.4 °F 51.8 °F 64% 29.98 in 6.2 mi South 8.1 mph - N/A   Mostly Cloudy
1:00 PM 64.4 °F 50.0 °F 59% 29.95 in 6.2 mi SSW 10.4 mph - N/A   Mostly Cloudy
1:30 PM 64.4 °F 51.8 °F 64% 29.95 in 6.2 mi SSW 12.7 mph - N/A   Mostly Cloudy
2:00 PM 62.6 °F 53.6 °F 72% 29.95 in 6.2 mi SW 10.4 mph - N/A   Overcast
2:30 PM 64.4 °F 53.6 °F 68% 29.95 in 6.2 mi SW 3.5 mph - N/A   Mostly Cloudy
3:00 PM 62.6 °F 53.6 °F 72% 29.95 in 6.2 mi West 3.5 mph - N/A   Mostly Cloudy
3:30 PM 62.6 °F 53.6 °F 72% 29.95 in 6.2 mi WNW 2.3 mph - N/A   Mostly Cloudy
4:00 PM 62.6 °F 53.6 °F 72% 29.95 in 6.2 mi Variable 1.2 mph - N/A   Mostly Cloudy
4:30 PM 60.8 °F 55.4 °F 82% 29.95 in 6.2 mi East 1.2 mph - N/A   Mostly Cloudy
5:00 PM 60.8 °F 55.4 °F 82% 29.95 in 6.2 mi SE 1.2 mph - N/A   Mostly Cloudy
5:30 PM 59.0 °F 53.6 °F 82% 29.92 in 6.2 mi Variable 1.2 mph - N/A   Scattered Clouds
6:00 PM 57.2 °F 53.6 °F 88% 29.95 in 6.2 mi ESE 3.5 mph - N/A   Mostly Cloudy
6:30 PM 57.2 °F 53.6 °F 88% 29.95 in 6.2 mi Variable 2.3 mph - N/A   Mostly Cloudy
7:00 PM 57.2 °F 53.6 °F 88% 29.95 in 6.2 mi Variable 2.3 mph - N/A   Scattered Clouds
7:30 PM 57.2 °F 53.6 °F 88% 29.95 in 6.2 mi SE 5.8 mph - N/A   Mostly Cloudy
8:00 PM 59.0 °F 53.6 °F 82% 29.95 in 6.2 mi ESE 5.8 mph - N/A   Mostly Cloudy
8:30 PM 59.0 °F 53.6 °F 82% 29.95 in 6.2 mi ESE 10.4 mph - N/A   Overcast
9:00 PM 59.0 °F 53.6 °F 82% 29.95 in - SE 8.1 mph - N/A   Clear
9:30 PM 59.0 °F 53.6 °F 82% 29.95 in - SE 4.6 mph - N/A   Clear
10:00 PM 59.0 °F 53.6 °F 82% 29.95 in 6.2 mi SSE 8.1 mph - N/A   Mostly Cloudy
10:30 PM 57.2 °F 51.8 °F 82% 29.95 in 6.2 mi SSE 6.9 mph - N/A   Partly Cloudy
11:00 PM 57.2 °F 51.8 °F 82% 29.95 in 6.2 mi South 6.9 mph - N/A   Partly Cloudy
11:30 PM 55.4 °F 53.6 °F 94% 29.95 in 6.2 mi SSE 8.1 mph - N/A   Unknown